Regional Weather Roundup
Issued by NWS

Home | Current Version | Previous Version | Text Only | Print | Product List | Glossary Off
Versions: 1 2 3 4 5 6 7 8 9 10 11 12 13 14 15 16 17 18 19 20 21 22 23 24 25 26 27 28 29 30 31 32 33 34 35 36 37 38 39 40 41 42 43 44 45 46 47 48 49 50

000
ASUS43 KDTX 010401
RWRMI
MICHIGAN HOURLY REGIONAL WEATHER ROUNDUP
NATIONAL WEATHER SERVICE DETROIT/PONTIAC MI
1100 PM EST SAT FEB 28 2015

NOTE: "FAIR" INDICATES FEW OR NO CLOUDS BELOW 12,000 FEET WITH NO
SIGNIFICANT WEATHER AND/OR OBSTRUCTION TO VISIBILITY.

MIZ047>049-052>055-059>063-066>070-074>076-081>083-010500-
SOUTHEAST LOWER MICHIGAN

CITY           SKY/WX    TMP DP  RH WIND       PRES   REMARKS
ADRIAN         CLOUDY    15   5  64 SE3       30.56F
ALMA           CLOUDY    16   2  54 S7        30.53F WCI   6
ANN ARBOR      CLOUDY    15   3  59 SE3       30.55F
BAD AXE        MOCLDY     9   2  73 S6        30.55F WCI  -1
CARO           CLOUDY    11   2  68 CALM      30.54F
DETROIT CITY   CLOUDY    17   4  56 S7        30.57F WCI   8
DETROIT        CLOUDY    16   5  62 SE5       30.58F WCI   9
FLINT          CLOUDY    17   4  56 S5        30.54F WCI  10
GROSSE ILE     CLOUDY    16   7  67 CALM      30.57S
HILLSDALE      LGT SNOW  15   4  60 S7        30.50F WCI   5
HOWELL         CLOUDY    15   2  57 S8        30.52F WCI   4

CITY           SKY/WX    TMP DP  RH WIND       PRES   REMARKS
JACKSON        CLOUDY    15   3  59 SE7       30.51F WCI   5
LAMBERTVILLE   CLOUDY    19   9  63 CALM      30.58S
LANSING        CLOUDY    16   2  54 S9        30.53F WCI   4
LAPEER         MOCLDY    12   3  67 CALM      30.55F
MASON          CLOUDY    15   3  58 S6        30.52F WCI   6
MONROE         CLOUDY    16   7  67 E5        30.55F WCI   9
MT. CLEMENS    CLOUDY    12   5  73 SE6       30.55F WCI   3
PONTIAC        CLOUDY    14   2  58 S5        30.52F WCI   6
PORT HOPE        N/A     11   0  61 SW5       30.54F WCI   3
PORT HURON     CLOUDY    10   5  79 CALM      30.58F
TRI CITIES     CLOUDY    16   2  54 S6        30.53F WCI   7
TROY           CLOUDY    18   4  53 CALM      30.58F
SAGINAW HB     CLOUDY    18   3  53 S6        30.54F WCI   9
$$
MIZ043>046-050>051-056>058-064>065-071>073-077>080-010500-
SOUTHWEST LOWER MICHIGAN

CITY           SKY/WX    TMP DP  RH WIND       PRES   REMARKS
BATTLE CREEK   CLOUDY    17   3  54 S8        30.51F WCI   7
BENTON HARBOR  LGT SNOW  16  13  88 SE7       30.52F FOG     WCI   6
BIG RAPIDS     MOCLDY    12   3  68 CALM      30.47F
COLDWATER      LGT SNOW  15   8  76 S7        30.52S WCI   5
FREMONT        FAIR      13   3  64 CALM      30.50S
HOLLAND        CLOUDY    17   5  59 SE6       30.51F WCI   9
GRAND RAPIDS   CLOUDY    17   3  54 S7        30.50F WCI   8
IONIA          CLOUDY    18   4  56 S8        30.51F WCI   7
KALAMAZOO      CLOUDY    16   7  67 S8        30.52S WCI   5
LUDINGTON      CLOUDY    16   4  60 SE3       30.49F
MARSHALL       CLOUDY    15   1  55 S5        30.51F WCI   7
MOUNT PLEASANT MOCLDY    14   0  53 CALM      30.50F
MUSKEGON       MOCLDY    14   6  70 SE6       30.51F WCI   5
SOUTH HAVEN    FLURRIES  18  12  77 S5        30.52S WCI  11
$$
MIZ016>042-010500-
NORTHERN LOWER MICHIGAN

CITY           SKY/WX    TMP DP  RH WIND       PRES   REMARKS
ALPENA         CLEAR     13   3  64 S5        30.51S WCI   5
BEAVER ISLAND  CLEAR     17  10  74 S8        30.44F WCI   6
BELLAIRE       PTCLDY     3  -1  84 CALM      30.49F
CADILLAC       CLOUDY     8   0  69 CALM      30.42F
CHARLEVOIX     CLEAR     12   7  78 CALM      30.50F
FRANKFORT      MOCLDY    15   4  60 S8        30.47F WCI   4
GAYLORD        CLEAR     11   1  64 S7        30.42F WCI   0
GRAYLING       PTCLDY    13   3  64 S3        30.46F
HARBOR SPRINGS CLEAR      4   1  86 CALM      30.46F
HOUGHTON LAKE  MOCLDY    11  -1  58 S6        30.47F WCI   1
MANISTEE       MOCLDY    10   3  72 SE5       30.49F WCI   2
OSCODA         PTCLDY     8  -1  67 S5        30.53S WCI   0
PELLSTON       CLEAR     -3  -7  82 CALM      30.47F
ROGERS CITY    CLEAR     13   5  69 S7        30.50S WCI   3
TRAVERSE CITY  MOCLDY    14   5  67 CALM      30.47F
$$
MIZ007>008-015-010500-
EASTERN UPPER MICHIGAN

CITY           SKY/WX    TMP DP  RH WIND       PRES   REMARKS
KINROSS        CLEAR     10   9  92 S5        30.43F WCI   2
MACKINAC ISLAN CLEAR     14   7  73 SW8       30.45F WCI   3
NEWBERRY       CLEAR     13  10  90 S16G22    30.39F WCI  -4
S. S. MARIE    CLEAR      9   4  80 SE3       30.44F
MUNISING         N/A     13  -2  51 S8        30.38F WCI   2
$$
MIZ004>006-011>014-085-010500-
CENTRAL UPPER MICHIGAN

CITY           SKY/WX    TMP DP  RH WIND       PRES   REMARKS
MANISTIQUE     PTCLDY    15   8  72 SW6       30.41F WCI   7
ESCANABA       MOCLDY    12   1  62 SW8       30.42F WCI   1
MENOMINEE      CLOUDY    10   1  67 SW9       30.42F WCI  -2
SAWYER-GWINN   PTCLDY    10  -2  60 SW13      30.31F WCI  -6
$$
MIZ001>003-009>011-084-010500-
WESTERN UPPER MICHIGAN

CITY           SKY/WX    TMP DP  RH WIND       PRES   REMARKS
IRON MOUNTAIN  MOCLDY    10  -3  55 S7        30.33F WCI  -1
HOUGHTON       CLEAR     14  -4  44 SW10G18   30.26F WCI   1
COPPER HARBOR    N/A     18  -2  41 W7        30.27F WCI   9
IRONWOOD       CLOUDY    12  -2  52 S14G20    30.24S WCI  -3
$$

ABBREVIATIONS USED IN REMARKS
   TC - TEMPERATURE IN CELSIUS
  WCI - WIND CHILL INDEX
   HX - HEAT INDEX
  VSB - VISIBILITY




USA.gov is the U.S. government's official web portal to all federal, state and local government web resources and services.